Regional Weather Roundup
Issued by NWS

Home | Current Version | Previous Version | Graphics & Text | Print | Product List | Glossary On
Versions: 1 2 3 4 5 6 7 8 9 10 11 12 13 14 15 16 17 18 19 20 21 22 23 24 25 26 27 28 29 30 31 32 33 34 35 36 37 38 39 40 41 42 43 44 45 46 47 48 49 50
780
ASUS43 KIND 042309
RWRIN

WEATHER ROUNDUP FOR INDIANA
NATIONAL WEATHER SERVICE INDIANAPOLIS IN
600 PM EST SUN DEC 04 2016

NOTE: "FAIR" INDICATES FEW OR NO CLOUDS BELOW 12,000 FEET WITH NO
SIGNIFICANT WEATHER AND/OR OBSTRUCTIONS TO VISIBILITY.

* - STATION DOES NOT REPORT WEATHER SUCH AS PRECIPITATION OR FOG.

+ - STATION NOT QUALITY CONTROLLED BY THE NATIONAL WEATHER SERVICE.
    USE DATA WITH CAUTION...ESPECIALLY DEWPOINT AND RELATIVE
    HUMIDITY OBSERVATIONS.

INZ001>003-010>013-019-020-050000-
NORTHWEST INDIANA

CITY           SKY/WX    TMP DP  RH WIND       PRES   REMARKS
GARY /AIRPORT/ LGT SNOW  34  34 100 CALM      29.90R VSB 1
KNOX *+        CLOUDY    32  27  80 SE6       29.86F WCI  26
LA PORTE +     LGT SNOW N/A N/A N/A SE5       29.88R
MICHIGAN CITY+ LGT SNOW  32  32 100 CALM      29.88R
MONTICELLO +   LGT SNOW  32  29  90 SE3       29.86F
RENSSELAER +   LGT SNOW  32  32 100 SE5       29.87S WCI  27
VALPARAISO     LGT SNOW  33  31  92 E5        29.88R FOG     WCI  29

$$

LMZ046-743>745-050000-
SOUTHERN LAKE MICHIGAN

STATION/POSITION TIME  TEMP    WIND        PRES    WAVE
                       AIR SEA DIR/SP/G            HT
                 (UTC) (F)     (DEG/KT/KT) (MB)    (FT)
BURNS HARBOR     2240   33      CALM  /  3 1012.5S

$$

INZ004-005-014>016-021>024-050000-
NORTH CENTRAL INDIANA

CITY           SKY/WX    TMP DP  RH WIND       PRES   REMARKS
ELKHART        LGT SNOW  32  32 100 SE6       29.87F VSB 1   WCI  26
GOSHEN         LGT SNOW  33  30  88 SE9       29.86F VSB 3/4 WCI  25
LOGANSPORT +   LGT SNOW  32  32 100 E8        29.87F VSB 3/4 WCI  25
PERU/GRISSOM   LGT SNOW  33  33 100 SE10      29.84F FOG     WCI  24
ROCHESTER +    LGT SNOW  34  34 100 SE8       29.87F WCI  27
SOUTH BEND     SNOW      32  31  96 SE10      29.87F VSB 1/2 WCI  24
WARSAW +       LGT SNOW  32  32 100 SE9       29.86F WCI  24

$$

INZ006>009-017-018-025>027-050000-
NORTHEAST INDIANA

CITY           SKY/WX    TMP DP  RH WIND       PRES   REMARKS
ANGOLA *+      CLOUDY    32  30  93 SE15      29.87F WCI  22
AUBURN +       LGT SNOW  32  32 100 E3        29.90F
FORT WAYNE     SNOW      33  31  92 E9        29.91S VSB 1/2 WCI  25
HUNTINGTON +   LGT SNOW  32  31  96 E6        29.89F WCI  26
KENDALLVILLE + LGT SNOW  32  32 100 SE10      29.88F WCI  24

$$

INZ028-029-035-036-043>045-051>053-050000-
WEST CENTRAL INDIANA

CITY           SKY/WX    TMP DP  RH WIND       PRES   REMARKS
CRAWFORDSVL +  LGT SNOW  37  37 100 S6        29.87R
GREENCASTLE +  LGT RAIN  37  37 100 SW3       29.87S
LAFAYETTE      MIX PCPN  32  32 100 CALM      29.87S FOG
TERRE HAUTE    LGT RAIN  40  37  89 W12       29.90R

$$

INZ030>032-037>040-046>048-054>057-064-065-050000-
CENTRAL INDIANA

CITY           SKY/WX    TMP DP  RH WIND       PRES   REMARKS
CP ATTERBURY + LGT RAIN  41  37  87 SE3       29.88F
COLUMBUS       LGT RAIN  39  39 100 S6        29.89F FOG
FRANKFORT +    RAIN      36  35  96 SE7       29.87R
GREENWOOD *+   CLOUDY    40  40 100 SE6       29.88F
INDIANAPOLIS   LGT RAIN  39  38  96 SE8       29.85F FOG
-EAGLE CREEK   LGT RAIN  39  37  92 SE7       29.85F FOG
KOKOMO +       LGT SNOW  34  32  93 SE10      29.87F FOG     WCI  26
MARION +       LGT SNOW  32  32 100 SE7       29.88F WCI  26
MT COMFORT *+  CLOUDY    37  36  93 SE6       29.88F
SHELBYVILLE    LGT RAIN  40  37  89 SE9       29.88F FOG
ZIONSVILLE +   DRIZZLE   37  36  96 SE7       29.86F

$$

INZ033-034-041-042-049-050-058-059-050000-
EAST CENTRAL INDIANA

CITY           SKY/WX    TMP DP  RH WIND       PRES   REMARKS
MUNCIE         LGT RAIN  35  33  92 SE6       29.89F FOG     WCI  30

$$

INZ060-061-067>069-081>083-085>088-050000-
SOUTHWEST INDIANA

CITY           SKY/WX    TMP DP  RH WIND       PRES   REMARKS
EVANSVILLE     CLOUDY    45  42  89 W9        29.95R
HUNTINGBURG *+ LGT RAIN  44  42  93 SW7       29.92S
WASHINGTON +   CLOUDY    43  43 100 W9        29.90S

$$

INZ062-063-066-070>080-084-089>092-050000-
SOUTH CENTRAL AND SOUTHEAST INDIANA

CITY           SKY/WX    TMP DP  RH WIND       PRES   REMARKS
BLOOMINGTON    LGT RAIN  43  40  89 SW9       29.87F
MADISON *+     CLOUDY    45  43  93 S3        29.91F
NORTH VERNON + DRIZZLE  N/A N/A N/A CALM      29.90F
SEYMOUR +      LGT RAIN  43  43 100 CALM      29.89F

$$





USA.gov is the U.S. government's official web portal to all federal, state and local government web resources and services.